AL3A Weather Reports


Display with metric or nautical units.
time (UTC)temp
F
wind
direction
speed
MPH
gust
MPH
rain 1hr
in
rain 24hr
in
rain mn
in
humidity
%
barometer
mb
20260905005517 71 248 1.0 6.0 0.00 0.01 0.01 51 1025.4
20260905004517 72 225 4.0 12.0 0.00 0.01 0.01 49 1025.5
20260905003517 73 248 2.0 9.0 0.00 0.01 0.01 48 1025.9
20260905002537 72 248 3.0 9.0 0.00 0.01 0.01 49 1025.4
20260905001517 72 225 2.0 8.0 0.00 0.01 0.01 51 1025.6
20260905000517 72 203 1.0 4.0 0.00 0.01 0.01 52 1025.6
20260904235517 71 248 7.0 14.0 0.00 0.01 0.01 51 1025.6
20260904234517 71 248 3.0 12.0 0.00 0.01 0.01 50 1025.4
20260904233517 71 248 4.0 13.0 0.00 0.01 0.01 49 1025.3
20260904232537 72 225 3.0 12.0 0.00 0.01 0.01 50 1025.8
20260904231517 73 248 5.0 13.0 0.00 0.01 0.01 48 1026.0
20260904230517 74 270 4.0 12.0 0.00 0.01 0.01 46 1026.7
20260904225517 73 225 2.0 10.0 0.00 0.01 0.01 47 1026.7
20260904224517 73 225 6.0 14.0 0.00 0.01 0.01 46 1026.6
20260904223557 74 248 2.0 10.0 0.00 0.01 0.01 48 1026.6
20260904222516 74 270 3.0 11.0 0.00 0.01 0.01 48 1026.8
20260904221517 75 248 4.0 12.0 0.00 0.01 0.01 45 1026.7
20260904220537 75 293 3.0 14.0 0.00 0.01 0.01 47 1027.4
20260904215517 75 180 4.0 12.0 0.00 0.01 0.01 45 1027.4
20260904214516 74 248 5.0 12.0 0.00 0.01 0.01 45 1027.0
20260904213517 74 248 6.0 17.0 0.00 0.01 0.01 46 1027.2
20260904212517 72 248 4.0 14.0 0.00 0.01 0.01 47 1026.6
20260904211537 73 270 6.0 16.0 0.00 0.01 0.01 48 1026.8
20260904210516 73 248 4.0 12.0 0.00 0.01 0.01 48 1027.4
20260904205517 72 225 4.0 14.0 0.00 0.01 0.01 48 1026.7
20260904204516 73 158 4.0 15.0 0.00 0.01 0.01 50 1027.4
20260904203517 73 225 5.0 14.0 0.00 0.01 0.01 51 1027.5
20260904202536 72 248 7.0 19.0 0.00 0.01 0.01 50 1027.1
20260904201517 73 270 2.0 10.0 0.00 0.01 0.01 55 1027.9
20260904200516 72 248 2.0 8.0 0.00 0.01 0.01 53 1027.9
20260904195516 70 270 4.0 13.0 0.00 0.01 0.01 54 1027.3
20260904194517 71 248 3.0 10.0 0.00 0.01 0.01 54 1027.5
20260904193516 72 248 4.0 13.0 0.00 0.01 0.01 52 1027.9
20260904192516 72 248 4.0 17.0 0.00 0.01 0.01 50 1028.0
20260904191516 72 180 3.0 12.0 0.00 0.01 0.01 48 1028.1
20260904190516 71 270 1.0 8.0 0.00 0.01 0.01 48 1028.3
20260904185516 71 248 3.0 15.0 0.00 0.01 0.01 50 1028.0
20260904184516 71 248 3.0 11.0 0.00 0.01 0.01 49 1028.8
20260904183516 70 293 4.0 12.0 0.00 0.01 0.01 52 1029.0
20260904182516 71 180 4.0 10.0 0.00 0.01 0.01 51 1028.9
20260904181516 69 225 4.0 12.0 0.00 0.01 0.01 53 1028.5
20260904180536 69 270 4.0 11.0 0.00 0.01 0.01 52 1028.4
20260904175536 69 225 4.0 13.0 0.00 0.01 0.01 52 1028.5
20260904174516 68 225 3.0 18.0 0.00 0.01 0.01 55 1028.5
20260904173516 68 180 4.0 12.0 0.00 0.01 0.01 57 1028.4
20260904172516 67 270 2.0 13.0 0.00 0.01 0.01 57 1028.5
20260904171516 68 270 4.0 12.0 0.00 0.01 0.01 56 1028.3
20260904170516 69 225 4.0 12.0 0.00 0.01 0.01 59 1028.9
20260904165516 67 180 3.0 11.0 0.00 0.01 0.01 57 1028.2
20260904164516 67 225 4.0 13.0 0.00 0.01 0.01 60 1028.1
20260904163516 66 248 4.0 11.0 0.00 0.01 0.01 63 1028.4
20260904162516 65 248 2.0 12.0 0.00 0.01 0.01 65 1028.5
20260904161516 65 248 3.0 16.0 0.00 0.01 0.01 66 1028.4
20260904160516 65 158 1.0 12.0 0.00 0.01 0.01 67 1028.5
20260904155516 65 270 1.0 6.0 0.00 0.01 0.01 68 1028.4
20260904154516 64 0.0 2.0 0.00 0.01 0.01 73 1028.0
20260904153516 62 0.0 4.0 0.00 0.01 0.01 79 1028.5
20260904152516 61 0.0 1.0 0.00 0.01 0.01 79 1027.9
20260904151536 60 225 1.0 5.0 0.00 0.01 0.01 80 1027.9
20260904150536 61 0.0 0.0 0.00 0.01 0.01 80 1028.5
20260904145516 60 0.0 2.0 0.00 0.01 0.01 84 1028.0
20260904144556 57 0.0 0.0 0.00 0.01 0.01 90 1027.5
20260904143516 56 0.0 0.0 0.00 0.01 0.01 94 1027.5
20260904142516 54 0.0 0.0 0.00 0.01 0.01 95 1026.9
20260904141516 52 0.0 0.0 0.00 0.01 0.01 95 1026.3
20260904140516 51 0.0 0.0 0.00 0.01 0.01 96 1026.8
20260904135516 50 0.0 0.0 0.00 0.01 0.01 96 1026.1
20260904134516 49 0.0 0.0 0.01 0.01 0.01 96 1026.0
20260904133516 47 0.0 0.0 0.01 0.01 0.01 96 1025.3
20260904132516 47 0.0 2.0 0.01 0.01 0.01 94 1025.0
20260904131516 47 0.0 0.0 0.01 0.01 0.01 93 1025.0
20260904130516 49 0.0 0.0 0.01 0.01 0.01 96 1026.0
20260904125515 49 0.0 0.0 0.01 0.01 0.01 94 1025.4
20260904124515 49 0.0 2.0 0.00 0.00 0.00 95 1025.5
20260904123515 50 0.0 0.0 0.00 0.00 0.00 95 1025.9
20260904122516 50 0.0 0.0 0.00 0.00 0.00 96 1025.9
20260904121516 49 0.0 0.0 0.00 0.00 0.00 94 1025.8
20260904120516 50 0.0 3.0 0.00 0.00 0.00 95 1026.2
20260904115536 49 0.0 0.0 0.00 0.00 0.00 95 1025.8
20260904114516 50 0.0 0.0 0.00 0.00 0.00 95 1026.3
20260904113515 50 0.0 1.0 0.00 0.00 0.00 94 1026.3
20260904112515 50 0.0 0.0 0.00 0.00 0.00 95 1026.3
20260904111515 50 0.0 2.0 0.00 0.00 0.00 94 1026.4
20260904110515 50 0.0 0.0 0.00 0.00 0.00 93 1026.3
20260904105515 51 0.0 2.0 0.00 0.00 0.00 95 1026.4
20260904104515 52 0.0 0.0 0.00 0.00 0.00 94 1026.9
20260904103515 52 0.0 0.0 0.00 0.00 0.00 95 1026.8
20260904102515 51 0.0 1.0 0.00 0.00 0.00 94 1026.3
20260904101515 51 0.0 0.0 0.00 0.00 0.00 95 1026.3
20260904100515 50 0.0 0.0 0.00 0.00 0.00 95 1026.3
20260904095515 49 0.0 0.0 0.00 0.00 0.00 91 1025.6
20260904094535 50 0.0 0.0 0.00 0.00 0.00 91 1026.2
20260904093517 51 248 1.0 6.0 0.00 0.00 0.00 93 1026.6
20260904092517 50 0.0 1.0 0.00 0.00 0.00 92 1026.1
20260904091517 50 0.0 0.0 0.00 0.00 0.00 92 1026.2
20260904090537 51 0.0 0.0 0.00 0.00 0.00 92 1026.6
20260904085517 51 0.0 2.0 0.00 0.00 0.00 90 1026.1
20260904084517 51 0.0 0.0 0.00 0.00 0.00 91 1026.7
20260904083517 51 0.0 1.0 0.00 0.00 0.00 92 1026.4
20260904082517 50 0.0 0.0 0.00 0.00 0.00 91 1026.4
20260904081517 50 0.0 2.0 0.00 0.00 0.00 88 1026.3
20260904080517 51 0.0 1.0 0.00 0.00 0.00 88 1026.4
20260904075517 52 0.0 0.0 0.00 0.00 0.00 87 1026.9
20260904074517 52 0.0 0.0 0.00 0.00 0.00 88 1027.1
20260904073537 52 0.0 0.0 0.00 0.00 0.00 90 1026.6
20260904072517 51 0.0 0.0 0.00 0.00 0.00 86 1026.6
20260904071517 53 0.0 0.0 0.00 0.00 0.00 84 1027.0
20260904070517 53 0.0 1.0 0.00 0.00 0.00 88 1026.7
20260904065516 53 0.0 1.0 0.00 0.00 0.00 88 1026.6
20260904064516 53 0.0 0.0 0.00 0.00 0.00 86 1025.9
20260904063516 53 0.0 1.0 0.00 0.00 0.00 85 1025.9
20260904062515 54 0.0 1.0 0.00 0.00 0.00 84 1026.4
20260904061516 54 0.0 1.0 0.00 0.00 0.00 84 1026.4
20260904060515 54 0.0 0.0 0.00 0.00 0.00 84 1026.0
20260904055516 54 0.0 1.0 0.00 0.00 0.00 83 1026.0
20260904054536 54 0.0 3.0 0.00 0.00 0.00 83 1026.0
20260904053536 55 248 1.0 4.0 0.00 0.00 0.00 82 1026.5
20260904052515 55 293 1.0 4.0 0.00 0.00 0.00 82 1026.4
20260904051516 55 0.0 0.0 0.00 0.00 0.00 82 1026.6
20260904050516 55 0.0 0.0 0.00 0.00 0.00 81 1026.2
20260904045536 55 0.0 0.0 0.00 0.00 0.00 80 1026.2
20260904044516 56 0.0 0.0 0.00 0.00 0.00 78 1026.3
20260904043535 57 0.0 2.0 0.00 0.00 0.00 77 1026.4
20260904042515 58 0.0 1.0 0.00 0.00 0.00 74 1026.9
20260904041515 58 0.0 2.0 0.00 0.00 0.00 75 1026.8
20260904040515 59 0.0 1.0 0.00 0.00 0.00 74 1026.8
20260904035556 60 0.0 0.0 0.00 0.00 0.00 72 1027.2
20260904034515 59 0.0 3.0 0.00 0.00 0.00 72 1026.8
20260904033515 60 0.0 0.0 0.00 0.00 0.00 72 1026.2
20260904032515 61 0.0 0.0 0.00 0.00 0.00 69 1026.1
20260904031538 62 0.0 0.0 0.00 0.00 0.00 68 1026.4
20260904030518 63 0.0 0.0 0.00 0.00 0.00 67 1025.0
20260904025517 64 0.0 1.0 0.00 0.00 0.00 65 1024.9
20260904024517 64 0.0 1.0 0.00 0.00 0.00 65 1024.8
20260904023517 64 0.0 0.0 0.00 0.00 0.00 65 1023.8
20260904022517 64 0.0 0.0 0.00 0.00 0.00 64 1023.7
20260904021517 64 0.0 1.0 0.00 0.00 0.00 64 1023.7
20260904020537 65 0.0 3.0 0.00 0.00 0.00 63 1022.7
20260904015537 66 0.0 1.0 0.00 0.00 0.00 61 1022.7
20260904014517 66 0.0 2.0 0.00 0.00 0.00 60 1023.0
20260904013538 67 248 2.0 8.0 0.00 0.00 0.00 59 1022.5
20260904012517 67 225 1.0 5.0 0.00 0.00 0.00 59 1022.5
20260904011517 68 225 1.0 7.0 0.00 0.00 0.00 58 1022.5
20260904010517 69 225 1.0 5.0 0.00 0.00 0.00 57 1023.6